This demonstration page uses our WeatherBlox Daily Observations layout. Learn more.

Left ArrowRight Arrow

Hourly Observations for May 5, 2021

Temp ( °F °C ) Dew Point ( °F °C ) Humidity (%) Winds ( mph kmh ) Pressure ( in mb ) Visibility ( mi km ) Precip ( " mm )
12:53 am 00:53 Mostly Cloudy 39 3.9 36 2.2 89 89 WSW 7 11 30.12 1020 10 16 0.00 0.00
1:53 am 01:53 Cloudy 39 3.9 36 2.2 89 89 WSW 9 15 30.13 1020 10 16 0.00 0.00
2:53 am 02:53 Clear 37 2.8 34 1.1 89 89 SW 10 17 30.16 1021 10 16 0.00 0.00
3:53 am 03:53 Mostly Cloudy 39 3.9 35 1.7 86 86 SW 7 11 30.15 1021 10 16 0.00 0.00
4:53 am 04:53 Mostly Cloudy 38 3.3 35 1.7 89 89 W 9 15 30.17 1022 10 16 0.00 0.00
5:53 am 05:53 Cloudy 40 4.4 38 3.3 93 93 SW 9 15 30.18 1022 10 16 0.00 0.00
6:21 am 06:21 Cloudy 41 5 38 3.3 89 89 SW 10 17 30.22 1023 10 16 0.00 0.00
6:53 am 06:53 Cloudy 42 5.6 39 3.9 89 89 SW 13 20 30.20 1023 10 16 0.00 0.00
7:53 am 07:53 Cloudy 44 6.7 40 4.4 85 85 SW 12 19 30.21 1023 10 16 0.00 0.00
8:53 am 08:53 Cloudy 46 7.8 41 5 83 83 NW 10 17 30.24 1024 10 16 0.00 0.00
9:05 am 09:05 Cloudy 46 7.8 41 5 83 83 NW 10 17 30.23 1024 10 16 0.00 0.00
9:44 am 09:44 Cloudy 48 8.9 41 5 77 77 NW 10 17 30.23 1024 10 16 0.00 0.00
9:53 am 09:53 Cloudy 48 8.9 40 4.4 74 74 NW 10 17 30.25 1024 10 16 0.00 0.00
10:05 am 10:05 Cloudy 48 8.9 40 4.4 74 74 NNW 9 15 30.24 1024 10 16 0.00 0.00
10:12 am 10:12 Cloudy 49 9.4 40 4.4 71 71 NW 10 17 30.23 1024 10 16 0.00 0.00
10:37 am 10:37 Cloudy 52 11.1 39 3.9 61 61 NNW 14 22 30.22 1023 10 16 0.00 0.00
10:53 am 10:53 Cloudy 50 10 39 3.9 66 66 WNW 10 17 30.27 1025 10 16 0.00 0.00
11:53 am 11:53 Mostly Cloudy 53 11.7 36 2.2 52 52 NW 13 20 30.28 1025 10 16 0.00 0.00
12:53 pm 12:53 Mostly Cloudy 55 12.8 37 2.8 51 51 NNW 8 13 30.27 1025 10 16 0.00 0.00
1:53 pm 13:53 Partly Cloudy 60 15.6 32 0 35 35 W 17 28 30.24 1024 10 16 0.00 0.00
2:53 pm 14:53 Partly Cloudy 60 15.6 34 1.1 38 38 NW 16 26 30.24 1024 10 16 0.00 0.00
3:53 pm 15:53 Mostly Cloudy 61 16.1 32 0 34 34 NNW 14 22 30.23 1024 10 16 0.00 0.00
4:53 pm 16:53 Mostly Sunny 62 16.7 31 -0.6 31 31 N 16 26 30.24 1024 10 16 0.00 0.00
5:53 pm 17:53 Mostly Cloudy 62 16.7 31 -0.6 31 31 NNW 10 17 30.23 1024 10 16 0.00 0.00
6:53 pm 18:53 Partly Cloudy 60 15.6 31 -0.6 33 33 NNW 17 28 30.24 1024 10 16 0.00 0.00
7:53 pm 19:53 Sunny 56 13.3 33 0.6 42 42 NNE 13 20 30.25 1024 10 16 0.00 0.00
8:53 pm 20:53 Clear 50 10 33 0.6 52 52 NNE 9 15 30.28 1025 10 16 0.00 0.00
9:53 pm 21:53 Clear 46 7.8 35 1.7 66 66 undefined N/A 30.31 1026 10 16 0.00 0.00
10:53 pm 22:53 Clear 43 6.1 35 1.7 74 74 ESE 3 6 30.32 1027 10 16 0.00 0.00
11:53 pm 23:53 Clear 38 3.3 32 0 79 79 E 5 7 30.31 1027 10 16 0.00 0.00

Powered by AerisWeather